Find Starlink 11176

NORAD ID: 60060 Int'l Des: 2024-113 Owner: SPXS Country: US Constellation: starlink operational
LEOCIRCULAR

現在のビュー

3D地球を読み込み中...

About Starlink 11176

Starlink 11176 (NORAD 60060) is a starlink constellation satellite (v2 mini d2c) launched Jun 19, 2024 by SPXS of US. It operates in LEO, CIRCULAR orbit with a mass of 960.00 kg.

Starlink 11176について

説明を読み込み中...

次回通過

Passes for default location (London). Set your location on the main map for personalized predictions.

高度履歴

Loading altitude history...

軌道要素

1 60060U 24113B 26168.99087789 .00000002 00000-0 48731-5 0 9993
2 60060 53.1594 56.8388 0001028 71.4307 288.6822 15.69706005115318
Epoch: Jun 17, 2026 • Age: 14 hours

現在のステータス

高度 364.4 km
速度 7.69 km/s
衛星直下点 -16.99°S, 67.58°W
打ち上げ日 Jun 19, 2024
運用期間 1.9 years
タイプ internet

技術仕様

分類 Payload
質量 960.00 kg
乾燥質量 910.00 kg
総質量 960.00 kg
長さ 0.30 m
直径 4.10 m
スパン 29.00 m
形状 Box + pan
製造者 SPXS
バスタイプ Starlink V2MD
フェーズステータス In Orbit
所有者/国 SPXS/US

Most Searched